Location: ?????
(55.8833°N, 37.6500°E)
Time: 04:41:30
(UTC+00:00)

CZ-2D R/B - Pass Details

Date: 27 February 2020
Orbit: 520 x 539 km, 97.4° (Epoch: 02 April)

Event Time Altitude Azimuth Distance (km) Brightness Sun altitude
Rises 16:03:21 0° 170° (S) 2,689 6.7 -9.9°
Reaches altitude 10° 16:05:28 10° 173° (S) 1,801 5.9 -10.2°
Maximum altitude 16:09:21 69° 257° (WSW) 582 3.6 -10.7°
Drops below altitude 10° 16:13:16 10° 342° (NNW) 1,811 6.2 -11.3°
Sets 16:15:24 0° 345° (NNW) 2,705 7.1 -11.6°
